STARLINK-35998, 68055

Orbit data source: Space-Track

STARLINK-35998, 68055 is a payload satellite owned by SpaceX/Seattle (US) in LEO that was launched on Mon, 02 Mar 2026 UTC via an FALCON 9 launch vehicle from the Air Force Eastern Test Range (AFETR). Payload-class satellites include a variety of spacecraft equipped with specific instruments for various scientific and technological missions. These include communications satellites like Starlink; space stations such as the ISS; scientific satellites like the Hubble; Earth observation satellites from companies like Planet Labs, Umbra, and HawkEye 360; GPS; miniature CubeSats for education and research; and military/defense satellites.

Loading next visibility...
Identifier
68055, 2026-041R
Orbit
LEO
Country
Flag of USUS
Related business
Manufacturer
SpaceX/Seattle
Mission
Operational Commercial Communications
Bus & Motor
STARLINK V2MO, Unknown motor
Mass
575 kg wet, ~530 kg dry
Launch date (UTC)
2026-03-02 (4 months ago)
Launch vehicle
FALCON 9
Launch site
Air Force Eastern Test Range (AFETR)
Object type
Payload
Rocket body
Debris
Shape & HBR
Box + 2 Pan, 17.7 m
Radar Cross Section
36.964 m², Large (>1 m²)

Expand to show TLE details & history
Last TLE update: 1 day ago

TLE from 1 day ago
0 STARLINK-35998
1 68055U 26041R   26170.62537397  .00014790  00000-0  44806-3 0  9991
2 68055  53.1593 295.7940 0001174  80.3334 279.7801 15.34396905 17009
Epoch: 2026-06-19T15:00Z
TLE epoch observation values (Epoch: 2026-06-19T15:00:32.311Z)
Latitude
-0.00006°
Longitude
162.80767°
Altitude
463.477 km
Speed
7.636 km/s
True Right ascension
19h 43m 10s
True Declination
0° 00' 00"
Sunlit
Object was in full shadow at epoch
Visualization orbit readout
Latitude
Unknown
Longitude
Unknown
Altitude
Unknown
Speed
Unknown
Apparent Right ascension
Unknown
Apparent Declination
Unknown
Sunlit
N/A
Visualization observer readout
Local Sidereal Time
08:41:55
Azimuth
Unknown
Elevation
Unknown
Doppler factor
Unknown
Orbital elements
Apogee altitude
463.773 km
Perigee altitude
462.166 km
Semi-major axis
6,841.106 km
Eccentricity
0.00012
Inclination
53.1593°
RAAN
295.794°
Arg. of periapsis
80.3334°
True anomaly
279.76684°
Mean anomaly
279.7801°
Eccentric anomaly
279.77347°
Mean motion
3.83578 °/min
Orbital period
93.85 mins
BSTAR
0.00044806
Loading maneuver chart data...
Computing Atmospheric mass density...
Loading historical data...
Loading historical data...
Loading historical data...
Loading historical data...
Loading historical data...
Loading historical data...
Loading historical data...

Documentation

Showing up to 5 results
|